Time,TemperatureF,DewpointF,PressureIn,WindDirection,WindDirectionDegrees,WindSpeedMPH,WindSpeedGustMPH,Humidity,HourlyPrecipIn,Conditions,Clouds,dailyrainin,SoftwareType,DateUTC
2013-01-16 00:03:00,25.0,-99.9,-100.00,WSW,253,5.0,6.0,-999,-99.99,,,-99.99,,2013-01-16 06:03:00,
2013-01-16 00:12:00,25.0,-99.9,-100.00,WSW,253,5.0,6.0,-999,-99.99,,,-99.99,,2013-01-16 06:12:00,
2013-01-16 00:22:00,25.0,-99.9,-100.00,WSW,253,5.0,6.0,-999,-99.99,,,-99.99,,2013-01-16 06:22:00,
2013-01-16 04:03:00,25.0,-99.9,-100.00,WSW,246,2.0,2.0,-999,-99.99,,,-99.99,,2013-01-16 10:03:00,
2013-01-16 04:12:00,25.0,-99.9,-100.00,WSW,246,2.0,2.0,-999,-99.99,,,-99.99,,2013-01-16 10:12:00,
2013-01-16 04:22:00,25.0,-99.9,-100.00,WSW,246,2.0,2.0,-999,-99.99,,,-99.99,,2013-01-16 10:22:00,
2013-01-16 08:03:00,29.0,-99.9,-100.00,WSW,246,4.0,5.0,-999,-99.99,,,-99.99,,2013-01-16 14:03:00,
2013-01-16 08:12:00,29.0,-99.9,-100.00,WSW,246,4.0,5.0,-999,-99.99,,,-99.99,,2013-01-16 14:12:00,
2013-01-16 08:23:00,29.0,-99.9,-100.00,WSW,246,4.0,5.0,-999,-99.99,,,-99.99,,2013-01-16 14:23:00,
2013-01-16 08:30:00,32.0,-99.9,-100.00,WSW,243,4.0,8.0,-999,-99.99,,,-99.99,,2013-01-16 14:30:00,
2013-01-16 09:03:00,32.0,-99.9,-100.00,WSW,243,4.0,8.0,-999,-99.99,,,-99.99,,2013-01-16 15:03:00,
2013-01-16 09:12:00,32.0,-99.9,-100.00,WSW,243,4.0,8.0,-999,-99.99,,,-99.99,,2013-01-16 15:12:00,
2013-01-16 09:23:00,32.0,-99.9,-100.00,WSW,243,4.0,8.0,-999,-99.99,,,-99.99,,2013-01-16 15:23:00,
2013-01-16 10:30:00,43.0,-99.9,-100.00,WSW,251,7.0,11.0,-999,-99.99,,,-99.99,,2013-01-16 16:30:00,
2013-01-16 11:23:00,43.0,-99.9,-100.00,WSW,251,7.0,11.0,-999,-99.99,,,-99.99,,2013-01-16 17:23:00,
2013-01-16 11:53:00,45.0,-99.9,-100.00,West,260,6.0,9.0,-999,-99.99,,,-99.99,,2013-01-16 17:53:00,
2013-01-16 12:03:00,45.0,-99.9,-100.00,West,260,6.0,9.0,-999,-99.99,,,-99.99,,2013-01-16 18:03:00,
2013-01-16 13:00:00,54.0,-99.9,-100.00,WSW,251,5.0,8.0,-999,-99.99,,,-99.99,,2013-01-16 19:00:00,
2013-01-16 13:23:00,51.0,-99.9,-100.00,West,274,4.0,8.0,-999,-99.99,,,-99.99,,2013-01-16 19:23:00,
2013-01-16 13:33:00,51.0,-99.9,-100.00,West,274,4.0,8.0,-999,-99.99,,,-99.99,,2013-01-16 19:33:00,
2013-01-16 13:53:00,54.0,-99.9,-100.00,WSW,251,5.0,8.0,-999,-99.99,,,-99.99,,2013-01-16 19:53:00,
2013-01-16 17:03:00,56.0,-99.9,-100.00,WNW,290,5.0,6.0,-999,-99.99,,,-99.99,,2013-01-16 23:03:00,
2013-01-16 17:13:00,56.0,-99.9,-100.00,WNW,290,5.0,6.0,-999,-99.99,,,-99.99,,2013-01-16 23:13:00,
2013-01-16 17:23:00,56.0,-99.9,-100.00,WNW,290,5.0,6.0,-999,-99.99,,,-99.99,,2013-01-16 23:23:00,
2013-01-16 17:33:00,56.0,-99.9,-100.00,NW,304,4.0,7.0,-999,-99.99,,,-99.99,,2013-01-16 23:33:00,
2013-01-16 17:43:00,56.0,-99.9,-100.00,NW,304,4.0,7.0,-999,-99.99,,,-99.99,,2013-01-16 23:43:00,
2013-01-16 20:33:00,40.0,-99.9,-100.00,WSW,249,4.0,5.0,-999,-99.99,,,-99.99,,2013-01-17 02:33:00,
2013-01-16 20:43:00,40.0,-99.9,-100.00,WSW,249,4.0,5.0,-999,-99.99,,,-99.99,,2013-01-17 02:43:00,
2013-01-16 20:53:00,40.0,-99.9,-100.00,WSW,249,4.0,5.0,-999,-99.99,,,-99.99,,2013-01-17 02:53:00,
2013-01-16 21:04:00,39.0,-99.9,-100.00,SW,219,3.0,4.0,-999,-99.99,,,-99.99,,2013-01-17 03:04:00,
2013-01-16 21:12:00,39.0,-99.9,-100.00,SW,219,3.0,4.0,-999,-99.99,,,-99.99,,2013-01-17 03:12:00,
2013-01-16 21:22:00,39.0,-99.9,-100.00,SW,219,3.0,4.0,-999,-99.99,,,-99.99,,2013-01-17 03:22:00,
2013-01-16 21:50:00,36.0,-99.9,-100.00,SSW,198,0.0,3.0,-999,-99.99,,,-99.99,,2013-01-17 03:50:00,
2013-01-16 22:30:00,35.0,-99.9,-100.00,NNW,333,0.0,3.0,-999,-99.99,,,-99.99,,2013-01-17 04:30:00,
2013-01-16 22:33:00,36.0,-99.9,-100.00,SSW,198,0.0,3.0,-999,-99.99,,,-99.99,,2013-01-17 04:33:00,
2013-01-16 22:43:00,36.0,-99.9,-100.00,SSW,198,0.0,3.0,-999,-99.99,,,-99.99,,2013-01-17 04:43:00,
2013-01-16 23:22:00,35.0,-99.9,-100.00,NNW,333,0.0,3.0,-999,-99.99,,,-99.99,,2013-01-17 05:22:00,